Total_Precipitation_Accumulation
1.81 1.97 2.20 2.55 2.64 2.65 2.61 2.39 2.25 2.16 2.13 2.18 2.21 2.28 2.34 2.38 2.38 2.29 2.12 2.03 2.03 1.95 1.89 1.90 1.82 1.72 1.72 1.72 1.77 1.79 1.83 1.94 1.90 1.40 1.19 1.15 1.19 1.19 1.23 1.18 1.11 1.11 1.12
1.63 1.70 1.83 2.10 2.35 2.46 2.57 2.44 2.25 2.14 2.03 2.01 1.99 2.00 2.01 2.01 2.07 2.07 1.96 1.87 1.84 1.79 1.75 1.78 1.78 1.72 1.72 1.67 1.65 1.64 1.59 1.57 1.65 1.47 1.18 1.16 1.15 1.12 1.19 1.23 1.17 1.07 1.00
1.52 1.53 1.65 1.80 1.99 2.11 2.19 2.29 2.23 2.19 2.07 1.97 1.91 1.89 1.86 1.85 1.86 1.86 1.87 1.78 1.72 1.66 1.61 1.62 1.63 1.67 1.64 1.56 1.51 1.48 1.44 1.45 1.52 1.53 1.30 1.16 1.16 1.14 1.21 1.24 1.21 1.17 1.08
1.49 1.41 1.48 1.56 1.73 1.85 1.86 1.99 2.03 2.07 2.10 1.97 1.82 1.77 1.73 1.74 1.78 1.80 1.86 1.84 1.73 1.66 1.62 1.58 1.52 1.50 1.45 1.41 1.42 1.42 1.48 1.59 1.62 1.66 1.53 1.34 1.25 1.23 1.31 1.31 1.30 1.21 1.20
1.47 1.39 1.38 1.38 1.46 1.57 1.59 1.67 1.76 1.83 1.97 1.98 1.87 1.80 1.74 1.71 1.76 1.79 1.83 1.84 1.77 1.72 1.63 1.54 1.47 1.48 1.44 1.41 1.45 1.47 1.55 1.73 1.85 1.91 1.80 1.61 1.47 1.39 1.36 1.28 1.35 1.35 1.35
1.39 1.39 1.35 1.32 1.34 1.42 1.43 1.46 1.52 1.63 1.77 1.88 1.91 1.86 1.81 1.77 1.98 1.96 1.86 1.82 1.80 1.76 1.69 1.56 1.47 1.49 1.42 1.44 1.48 1.56 1.72 1.92 2.06 2.08 1.96 1.76 1.46 1.30 1.30 1.45 1.62 1.82 1.77
1.28 1.29 1.34 1.38 1.37 1.40 1.40 1.40 1.46 1.56 1.67 1.79 1.85 1.90 1.90 1.94 2.01 1.84 1.89 1.79 1.74 1.70 1.63 1.57 1.49 1.40 1.41 1.26 1.35 1.48 1.56 1.71 1.80 1.80 1.76 1.45 1.31 1.27 1.52 1.82 1.85 1.89 1.67
1.16 1.21 1.24 1.31 1.35 1.34 1.37 1.38 1.44 1.51 1.61 1.72 1.79 1.77 1.76 1.83 1.88 1.75 1.75 1.67 1.70 1.68 1.59 1.51 1.50 1.46 1.44 1.47 1.50 1.54 1.37 1.29 1.31 1.27 1.30 1.27 1.29 1.45 1.79 2.15 2.27 2.27 1.99
1.10 1.22 1.25 1.31 1.34 1.36 1.41 1.43 1.45 1.52 1.59 1.59 1.62 1.65 1.64 1.69 1.73 1.64 1.63 1.53 1.59 1.55 1.49 1.44 1.44 1.39 1.59 1.77 1.78 1.75 1.50 1.24 1.25 1.37 1.47 1.49 1.59 1.72 1.89 2.29 2.62 2.77 2.42
1.14 1.24 1.27 1.31 1.40 1.42 1.41 1.43 1.42 1.48 1.56 1.51 1.47 1.46 1.46 1.48 1.57 1.53 1.51 1.43 1.48 1.44 1.42 1.41 1.52 1.48 1.65 1.78 1.70 1.77 1.68 1.38 1.28 1.33 1.39 1.43 1.39 1.51 1.80 1.98 2.53 3.12 2.81
1.18 1.23 1.25 1.23 1.30 1.35 1.32 1.31 1.36 1.40 1.40 1.36 1.31 1.30 1.29 1.34 1.42 1.38 1.41 1.38 1.42 1.42 1.38 1.32 1.31 1.55 1.67 1.73 1.63 1.48 1.57 1.61 1.51 1.49 1.49 1.47 1.46 1.49 1.57 1.69 2.08 2.93 3.31
1.08 1.15 1.25 1.25 1.24 1.26 1.28 1.28 1.31 1.31 1.27 1.24 1.18 1.17 1.15 1.20 1.30 1.31 1.36 1.42 1.51 1.43 1.29 1.18 1.23 1.48 1.51 1.56 1.51 1.54 1.71 1.70 1.54 1.66 1.72 1.68 1.63 1.61 1.62 1.69 1.83 2.08 2.42
1.08 1.13 1.21 1.22 1.23 1.27 1.26 1.26 1.26 1.23 1.18 1.14 1.10 1.07 1.06 1.06 1.17 1.31 1.34 1.43 1.49 1.40 1.29 1.33 1.36 1.40 1.37 1.38 1.53 1.66 1.62 1.49 1.62 1.85 1.83 1.71 1.68 1.75 1.82 1.89 1.89 1.92 1.97
1.11 1.12 1.15 1.20 1.23 1.22 1.20 1.22 1.26 1.28 1.24 1.15 1.09 1.06 1.02 0.98 1.03 1.11 1.22 1.30 1.34 1.35 1.37 1.37 1.32 1.31 1.32 1.39 1.51 1.52 1.46 1.53 1.78 1.92 1.87 1.76 1.76 1.86 1.99 2.10 2.24 2.21 2.23
0.97 1.03 1.04 1.09 1.16 1.19 1.18 1.23 1.28 1.31 1.39 1.41 1.31 1.20 1.17 1.13 1.12 1.27 1.33 1.31 1.33 1.37 1.39 1.34 1.29 1.29 1.32 1.30 1.33 1.37 1.45 1.60 1.74 1.74 1.86 1.92 1.89 1.93 2.03 2.13 2.31 2.35 2.28
0.83 0.89 0.94 0.98 1.03 1.06 1.08 1.12 1.21 1.25 1.31 1.34 1.35 1.34 1.25 1.26 1.27 1.27 1.28 1.36 1.45 1.50 1.49 1.43 1.35 1.30 1.32 1.30 1.32 1.36 1.41 1.56 1.70 1.86 1.98 2.08 2.15 2.18 2.22 2.19 2.24 2.28 2.14
0.75 0.82 0.86 0.88 0.94 0.97 0.98 1.00 1.06 1.09 1.09 1.12 1.20 1.27 1.30 1.31 1.28 1.23 1.25 1.31 1.37 1.44 1.43 1.39 1.36 1.36 1.38 1.37 1.39 1.44 1.46 1.50 1.76 2.03 2.17 2.23 2.32 2.35 2.33 2.25 2.11 2.00 1.82
0.62 0.71 0.78 0.80 0.84 0.89 0.92 0.95 0.98 0.98 0.97 0.99 1.05 1.15 1.21 1.23 1.23 1.22 1.24 1.22 1.22 1.22 1.27 1.35 1.41 1.44 1.46 1.47 1.50 1.60 1.67 1.71 1.86 2.06 2.18 2.29 2.44 2.51 2.35 2.07 1.86 1.75 1.66
0.54 0.60 0.67 0.72 0.75 0.80 0.82 0.85 0.89 0.89 0.89 0.89 0.86 0.95 1.07 1.09 1.11 1.15 1.12 1.05 1.06 1.09 1.14 1.25 1.34 1.41 1.46 1.50 1.54 1.66 1.82 1.94 2.01 2.18 2.27 2.36 2.45 2.46 2.18 1.78 1.55 1.45 1.47
0.52 0.60 0.65 0.66 0.66 0.69 0.72 0.75 0.79 0.80 0.81 0.80 0.82 0.90 0.92 0.93 0.95 0.96 0.96 0.97 0.99 1.01 1.05 1.15 1.22 1.32 1.44 1.55 1.64 1.74 1.91 1.98 2.05 2.15 2.26 2.28 2.19 2.10 1.91 1.59 1.44 1.44 1.37
0.51 0.54 0.59 0.58 0.58 0.60 0.64 0.68 0.72 0.75 0.75 0.74 0.79 0.90 1.02 1.02 0.96 0.90 0.92 0.95 0.99 1.02 1.06 1.13 1.19 1.28 1.42 1.56 1.70 1.76 1.86 1.94 2.03 2.15 2.15 2.02 1.87 1.71 1.50 1.45 1.41 1.37 1.36
0.51 0.53 0.54 0.55 0.56 0.59 0.64 0.66 0.70 0.72 0.69 0.69 0.69 0.74 0.86 0.83 0.79 0.81 0.83 0.87 0.90 0.94 0.99 1.08 1.14 1.19 1.46 1.79 2.03 2.10 1.96 1.87 1.89 1.98 1.92 1.71 1.54 1.44 1.41 1.44 1.42 1.41 1.39
0.50 0.52 0.52 0.53 0.57 0.64 0.66 0.62 0.64 0.65 0.65 0.64 0.65 0.65 0.68 0.72 0.72 0.73 0.76 0.77 0.79 0.82 0.85 0.94 1.06 1.10 1.24 1.63 2.02 2.41 2.51 2.24 2.05 2.05 2.08 1.84 1.56 1.46 1.48 1.49 1.43 1.43 1.34
0.47 0.49 0.52 0.52 0.54 0.58 0.60 0.61 0.61 0.63 0.63 0.62 0.62 0.63 0.66 0.69 0.69 0.67 0.68 0.72 0.75 0.75 0.78 0.87 0.97 1.06 1.20 1.54 1.86 2.06 2.25 2.36 2.44 2.38 2.26 2.12 1.78 1.51 1.48 1.46 1.35 1.31 1.30
0.47 0.50 0.52 0.54 0.55 0.56 0.58 0.59 0.59 0.59 0.61 0.62 0.62 0.63 0.64 0.64 0.63 0.62 0.62 0.65 0.68 0.68 0.67 0.74 0.88 1.05 1.23 1.46 1.72 1.92 2.03 2.11 2.10 2.09 2.05 1.93 1.69 1.44 1.41 1.40 1.31 1.26 1.26
0.50 0.53 0.55 0.55 0.56 0.56 0.58 0.58 0.56 0.56 0.59 0.58 0.59 0.61 0.63 0.63 0.62 0.61 0.62 0.63 0.64 0.62 0.61 0.64 0.74 0.94 1.15 1.37 1.57 1.81 1.88 1.75 1.55 1.51 1.68 1.79 1.62 1.39 1.35 1.41 1.31 1.28 1.26